Location: Amsterdam
(30.7274°N, 84.4357°W)
Time: 22:49:18
(UTC+00:00)

POLYITAN 1 - Visible Passes

Search period start: 12 March 2026 00:00
Search period end: 22 March 2026 00:00
Orbit: 470 x 483 km, 98.1° (Epoch: 12 March)

Date Brightness Start Highest point End Pass type
(mag) Time Alt. Az. Time Alt. Az. Time Alt. Az.
12 Mar ? 00:48:11 10° WSW 00:49:50 13° W 00:51:28 10° WNW visible
13 Mar ? 00:19:49 10° SSW 00:22:58 30° W 00:26:08 10° NW visible
16 Mar ? 00:32:56 10° SSW 00:35:39 21° W 00:38:23 10° NW visible
19 Mar ? 00:45:57 10° SW 00:47:59 15° W 00:50:02 10° WNW visible
20 Mar ? 00:17:36 10° SSW 00:20:51 36° W 00:24:08 10° NNW visible
